This is the latest recevied weather packets stored in our database for station/object KD8JAM. If no packets are shown the sender has not sent any weather packets the latest 10 day(s).
| Time | Temp. | Humidity | Pressure | Rain* | Wind** | Luminosity | Snow |
|---|---|---|---|---|---|---|---|
| 1778005979 | 1.11° C | 78% | 1008.3 hPa | 0 mm | - | 154 W/m² | - |
| 1778005676 | 1.11° C | 80% | 1008.2 hPa | 0 mm | - | 170 W/m² | - |
| 1778005372 | 1.11° C | 81% | 1008.3 hPa | 0 mm | - | 188 W/m² | - |
| 1778005069 | 1.11° C | 82% | 1008 hPa | 0 mm | - | 256 W/m² | - |
| 1778004766 | 1.11° C | 81% | 1008.1 hPa | 0 mm | - | 269 W/m² | - |
| 1778004463 | 1.11° C | 81% | 1008.2 hPa | 0 mm | - | 240 W/m² | - |
| 1778004159 | 1.11° C | 81% | 1008 hPa | 0 mm | - | 230 W/m² | - |
| 1778003856 | 1.11° C | 81% | 1007.8 hPa | 0 mm | - | 242 W/m² | - |
| 1778003552 | 1.11° C | 82% | 1008 hPa | 0 mm | - | 205 W/m² | - |
| 1778003249 | 0.56° C | 83% | 1007.9 hPa | 0 mm | - | 167 W/m² | - |
| 1778002946 | 0.56° C | 84% | 1008 hPa | 0 mm | - | 149 W/m² | - |
| 1778002642 | 1.11° C | 85% | 1008.1 hPa | 0 mm | - | 129 W/m² | - |
| 1778002339 | 0.56° C | 85% | 1007.7 hPa | 0 mm | - | 118 W/m² | - |
| 1778002036 | 0.56° C | 85% | 1007.6 hPa | 0 mm | - | 133 W/m² | - |
| 1778001733 | 0.56° C | 85% | 1007.6 hPa | 0 mm | - | 139 W/m² | - |
| 1778001433 | 0.56° C | 85% | 1007.7 hPa | 0 mm | - | 117 W/m² | - |
| 1778001131 | 1.11° C | 85% | 1007.7 hPa | 0 mm | - | 122 W/m² | - |
| 1778000827 | 1.11° C | 84% | 1007.7 hPa | 0 mm | - | 111 W/m² | - |
| 1778000524 | 1.11° C | 83% | 1007.2 hPa | 0 mm | - | 140 W/m² | - |
| 1778000224 | 1.11° C | 84% | 1007.4 hPa | 0 mm | - | 145 W/m² | - |
| 1777999920 | 1.67° C | 82% | 1007.4 hPa | 0 mm | - | 157 W/m² | - |
| 1777999616 | 1.67° C | 83% | 1007.5 hPa | 0 mm | - | 224 W/m² | - |
| 1777999313 | 1.67° C | 83% | 1007.3 hPa | 0 mm | - | 282 W/m² | - |
| 1777999012 | 1.11° C | 86% | 1007.2 hPa | 0 mm | - | 248 W/m² | - |
| 1777998709 | 1.11° C | 89% | 1007.3 hPa | 0 mm | - | 135 W/m² | - |
* Rain latest hour (hover to see other rain measurements)
** Current wind speed in m/s (hover to see current wind gust speed)